Kissimmee, FL

10:52 AM EST on November 21, 2019 (GMT -0500)
Kissimmee Municipal

Weather History for KISM - October, 2019

Change the Weather History Date:

Monday, October 21, 2019

  Actual Average Record
Temperature  
Mean Temperature 83 °F -  
Max Temperature 91 °F 83 °F 91 °F (1962)
Min Temperature 75 °F 62 °F 42 °F (1989)
Cooling Degree Days 18    
Growing Degree Days 33 (Base 50)    
Moisture  
Dew Point 75 °F    
Average Humidity 80    
Maximum Humidity 96    
Minimum Humidity 55    
Precipitation  
Precipitation 0.00 in - - ()
Sea Level Pressure  
Sea Level Pressure 29.99 in    
Wind  
Wind Speed 4 mph (South)    
Max Wind Speed 12 mph    
Max Gust Speed -    
Visibility 10 miles    
Events Rain , Thunderstorm    
Averages and records for this station are not official NWS values.
T = Trace of Precipitation, MM = Missing Value Source: NWS Daily Summary

Daily Weather History Graph

Daily Weather History Graph

Search for Another Location

Airport or City:

Astronomy

Oct. 21, 2019 Rise Set
Actual Time 7:29 AM EDT 6:50 PM EDT
Civil Twilight 7:05 AM EDT 7:14 PM EDT
Nautical Twilight 6:38 AM EDT 7:41 PM EDT
Astronomical Twilight 6:11 AM EDT 8:09 PM EDT
Moon 12:17 AM EDT 2:29 PM EDT
Length of Visible Light 12h 08m
Length of Day
11h 20m
Waning Gibbous, 48% of the Moon is Illuminated
Oct 21
Waning Gibbous
Oct 27
New
Nov 4
First Quarter
Nov 12
Full
Nov 19
Last Quarter

Hourly Weather History & Observations

Time (EDT) Temp. Heat Index Dew Point Humidity Pressure Visibility Wind Dir Wind Speed Gust Speed Precip Events Conditions
6:56 AM 75.2 °F - 69.8 °F 83% 29.98 in 10.0 mi Calm Calm - N/A   Overcast
7:56 AM 75.0 °F - 70.0 °F 84% 29.99 in 10.0 mi East 3.5 mph - N/A   Overcast
10:56 AM 82.4 °F 88.2 °F 73.4 °F 74% 30.02 in 10.0 mi SE 5.8 mph - N/A   Clear
10:57 AM 81.0 °F 85.8 °F 73.0 °F 77% 30.01 in 10.0 mi Variable 5.8 mph - N/A   Unknown
11:56 AM 84.9 °F 93.3 °F 75.0 °F 72% 30.01 in 10.0 mi SSE 6.9 mph - N/A   Scattered Clouds
12:56 PM 87.1 °F 97.3 °F 75.9 °F 69% 30.00 in 10.0 mi SSE 8.1 mph - N/A   Mostly Cloudy
1:04 PM 87.8 °F 97.6 °F 75.2 °F 66% 30.00 in 10.0 mi South 10.4 mph - N/A   Overcast
1:36 PM 91.4 °F 100.1 °F 73.4 °F 55% 29.99 in 10.0 mi SSW 10.4 mph - N/A   Overcast
1:56 PM 90.0 °F 96.9 °F 72.0 °F 55% 29.98 in 10.0 mi SSW 11.5 mph - N/A   Mostly Cloudy
2:56 PM 87.1 °F 95.4 °F 73.9 °F 65% 29.97 in 10.0 mi WNW 10.4 mph - N/A   Mostly Cloudy
3:56 PM 84.0 °F 96.0 °F 79.0 °F 85% 29.98 in 10.0 mi WNW 8.1 mph - 0.00 in Rain Light Rain
4:56 PM 84.9 °F 96.6 °F 78.1 °F 80% 29.98 in 10.0 mi Calm Calm - 0.00 in Thunderstorm Mostly Cloudy
5:48 PM 78.8 °F - 75.2 °F 89% 29.98 in 10.0 mi NW 3.5 mph - 0.00 in   Overcast
5:56 PM 79.0 °F - 75.9 °F 90% 29.98 in 10.0 mi Calm Calm - 0.00 in   Overcast
6:56 PM 80.1 °F 85.8 °F 77.0 °F 90% 29.97 in 10.0 mi Calm Calm - N/A   Partly Cloudy
7:56 PM 79.0 °F - 77.0 °F 94% 29.99 in 10.0 mi Calm Calm - 0.00 in   Mostly Cloudy
8:56 PM 79.0 °F - 77.0 °F 94% 30.01 in 10.0 mi Calm Calm - N/A   Partly Cloudy
9:56 PM 78.1 °F - 77.0 °F 96% 30.01 in 10.0 mi Calm Calm - N/A   Mostly Cloudy
11:56 PM 77.0 °F - 75.9 °F 96% 30.02 in 10.0 mi Calm Calm - N/A   Clear